Tracking 28805 objects as of 25-Apr-2024
HD Live streaming from Space Station
objects crossing your sky now

LATINSAT A

Track LATINSAT A now!
10-day predictions
LATINSAT A is classified as:


NORAD ID: 27612
Int'l Code: 2002-058H
Perigee: 626.2 km
Apogee: 634.2 km
Inclination: 64.6 °
Period: 97.2 minutes
Semi major axis: 7001 km
RCS: 0.0297 m2 (small)
Launch date: December 20, 2002
Source: Argentina (ARGN)
Launch site: TYURATAM MISSILE AND SPACE COMPLEX (TTMTR)

Nanosatellite; planned constellation of 48 satellites, little LEO; asset tracking and monitoring services.
Your satellite tracking list
Your tracking list is empty




NASA's NSSDC Master Catalog

Two Line Element Set (TLE):
1 27612U 02058H   24115.70513079  .00003618  00000-0  47211-3 0  9994
2 27612  64.5569 229.0070 0005717  73.0164 287.1568 14.81990139151364
Source of the keplerian elements: AFSPC